#timestamp,LO_Frequency,Hit,Temp,Hum 
1479160815.2,286039371.0,N,0.0,0.0
1479160835.0,286039373.0,N,0.0,0.0
1479160835.9,286039373.0,N,0.0,0.0
1479160855.8,286039373.2,N,0.0,0.0
1479160875.6,286039370.8,N,0.0,0.0
1479160895.5,286039371.0,N,0.0,0.0
1479160915.3,286039370.8,N,0.0,0.0
1479160935.1,286039372.4,N,0.0,0.0
1479160955.9,286039375.0,N,0.0,0.0
1479160975.7,286039374.1,N,0.0,0.0
1479160995.5,286039376.9,N,0.0,0.0
1479161015.4,286039375.2,N,0.0,0.0
1479161035.2,286039374.1,N,0.0,0.0
1479161055.1,286039376.5,N,0.0,0.0
1479161056.0,286039376.5,N,0.0,0.0
1479161075.8,286039378.6,N,0.0,0.0
1479161095.6,286039378.6,N,0.0,0.0
1479161115.5,286039377.7,N,0.0,0.0
1479161135.3,286039378.0,N,0.0,0.0
1479161155.1,286039377.2,N,0.0,0.0
1479161175.9,286039376.0,N,0.0,0.0
1479161195.7,286039383.5,N,0.0,0.0
1479161215.6,286039375.6,N,0.0,0.0
1479161235.4,286039376.3,N,0.0,0.0
1479161255.2,286039377.6,N,0.0,0.0
1479161275.1,286039377.5,N,0.0,0.0
1479161276.0,286039377.5,N,0.0,0.0
1479161295.8,286039383.2,N,0.0,0.0
1479161315.7,286039380.0,N,0.0,0.0
1479161335.5,286039380.0,N,0.0,0.0
1479161355.3,286039379.0,N,0.0,0.0
1479161375.2,286039381.9,N,0.0,0.0
1479161395.9,286039384.3,N,0.0,0.0
1479161415.7,286039380.6,N,0.0,0.0
1479161435.6,286039382.5,N,0.0,0.0
1479161455.4,286039382.8,N,0.0,0.0
1479161475.2,286039382.0,N,0.0,0.0
1479161495.1,286039384.8,N,0.0,0.0
1479161496.0,286039384.8,N,0.0,0.0
1479161515.8,286039383.6,N,0.0,0.0
1479161535.7,286039386.0,N,0.0,0.0
1479161555.5,286039385.8,N,0.0,0.0
1479161575.3,286039385.5,N,0.0,0.0
1479161595.2,286039388.3,N,0.0,0.0
1479161615.0,286039389.1,N,0.0,0.0
1479161615.9,286039389.1,N,0.0,0.0
1479161635.8,286039390.8,N,0.0,0.0
1479161655.6,286039391.5,N,0.0,0.0
1479161675.4,286039391.2,N,0.0,0.0
1479161695.3,286039391.1,N,0.0,0.0
1479161715.1,286039391.3,N,0.0,0.0
1479161735.8,286039391.5,N,0.0,0.0
1479161755.7,286039392.2,N,0.0,0.0
1479161775.5,286039390.6,N,0.0,0.0
1479161795.4,286039386.8,N,0.0,0.0
1479161815.2,286039388.9,N,0.0,0.0
1479161835.0,286039388.9,N,0.0,0.0
1479161835.9,286039388.9,N,0.0,0.0
1479161855.8,286039393.0,N,0.0,0.0
1479161875.6,286039394.3,N,0.0,0.0
1479161895.4,286039394.0,N,0.0,0.0
1479161915.3,286039394.0,N,0.0,0.0
1479161935.1,286039393.7,N,0.0,0.0
1479161955.9,286039393.4,N,0.0,0.0
1479161975.7,286039395.7,N,0.0,0.0
1479161995.5,286039393.6,N,0.0,0.0
1479162015.4,286039395.4,N,0.0,0.0
1479162035.2,286039394.8,N,0.0,0.0
1479162055.1,286039397.8,N,0.0,0.0
1479162056.0,286039397.8,N,0.0,0.0
1479162075.8,286039397.6,N,0.0,0.0
1479162095.6,286039397.5,N,0.0,0.0
1479162115.5,286039397.5,N,0.0,0.0
1479162135.3,286039397.5,N,0.0,0.0
1479162155.1,286039409.1,N,0.0,0.0
1479162175.9,286039395.4,N,0.0,0.0
1479162195.7,286039397.6,N,0.0,0.0
1479162215.6,286039398.0,N,0.0,0.0
1479162235.4,286039401.1,N,0.0,0.0
1479162255.2,286039401.1,N,0.0,0.0
1479162275.1,286039400.5,N,0.0,0.0
1479162276.0,286039400.5,N,0.0,0.0
1479162295.8,286039400.1,N,0.0,0.0
1479162315.7,286039399.8,N,0.0,0.0
1479162335.5,286039400.0,N,0.0,0.0
1479162355.3,286039401.9,N,0.0,0.0
1479162375.2,286039403.3,N,0.0,0.0
1479162395.9,286039401.9,N,0.0,0.0
1479162415.7,286039404.2,N,0.0,0.0
1479162435.6,286039404.2,N,0.0,0.0
1479162455.4,286039403.7,N,0.0,0.0
1479162475.3,286039401.4,N,0.0,0.0
1479162495.1,286039403.6,N,0.0,0.0
1479162496.0,286039403.6,N,0.0,0.0
1479162515.8,286039405.6,N,0.0,0.0
1479162535.7,286039403.2,N,0.0,0.0
1479162555.5,286039404.0,N,0.0,0.0
1479162575.3,286039405.8,N,0.0,0.0
1479162595.2,286039404.6,N,0.0,0.0
1479162615.0,286039404.4,N,0.0,0.0
1479162615.9,286039404.4,N,0.0,0.0
1479162635.8,286039404.5,N,0.0,0.0
1479162655.6,286039406.9,N,0.0,0.0
1479162675.4,286039407.4,N,0.0,0.0
1479162695.3,286039405.2,N,0.0,0.0
1479162715.1,286039406.9,N,0.0,0.0
1479162735.8,286039404.7,N,0.0,0.0
1479162755.7,286039404.2,N,0.0,0.0
1479162775.5,286039402.8,N,0.0,0.0
1479162795.4,286039402.8,N,0.0,0.0
1479162815.2,286039402.8,N,0.0,0.0
1479162835.0,286039405.5,N,0.0,0.0
1479162835.9,286039405.5,N,0.0,0.0
1479162855.8,286039407.4,N,0.0,0.0
1479162875.6,286039405.3,N,0.0,0.0
1479162895.4,286039405.6,N,0.0,0.0
1479162915.3,286039408.7,N,0.0,0.0
1479162935.1,286039408.7,N,0.0,0.0
1479162955.9,286039408.7,N,0.0,0.0
1479162975.7,286039407.1,N,0.0,0.0
1479162995.5,286039401.6,N,0.0,0.0
1479163015.4,286039403.1,N,0.0,0.0
1479163035.2,286039406.4,N,0.0,0.0
1479163055.0,286039406.1,N,0.0,0.0
1479163056.0,286039406.1,N,0.0,0.0
1479163075.8,286039518.8,N,0.0,0.0
1479163095.6,286039412.0,N,0.0,0.0
1479163115.5,286039556.4,N,0.0,0.0
1479163135.3,286039413.6,N,0.0,0.0
1479163155.1,286039413.4,N,0.0,0.0
1479163175.9,286039413.7,N,0.0,0.0
1479163195.7,286039410.8,N,0.0,0.0
1479163215.5,286039413.0,N,0.0,0.0
1479163235.4,286039412.8,N,0.0,0.0
1479163255.2,286039413.5,N,0.0,0.0
1479163275.1,286039413.2,N,0.0,0.0
1479163276.0,286039413.2,N,0.0,0.0
1479163295.8,286039409.2,N,0.0,0.0
1479163315.6,286039407.8,N,0.0,0.0
1479163335.5,286039411.9,N,0.0,0.0
1479163355.3,286039411.5,N,0.0,0.0
1479163375.2,286039410.0,N,0.0,0.0
1479163395.9,286039413.0,N,0.0,0.0
1479163415.7,286039413.4,N,0.0,0.0
1479163435.6,286039413.1,N,0.0,0.0
1479163455.4,286039414.9,N,0.0,0.0
1479163475.2,286039412.5,N,0.0,0.0
1479163495.1,286039413.2,N,0.0,0.0
1479163496.0,286039413.2,N,0.0,0.0
1479163515.8,286039413.9,N,0.0,0.0
1479163535.7,286039414.4,N,0.0,0.0
1479163555.5,286039417.1,N,0.0,0.0
1479163575.3,286039425.2,N,0.0,0.0
1479163595.2,286039416.1,N,0.0,0.0
1479163615.9,286039416.6,N,0.0,0.0
1479163635.7,286039416.6,N,0.0,0.0
1479163655.6,286039427.8,N,0.0,0.0
1479163675.4,286039417.7,N,0.0,0.0
1479163695.2,286039417.8,N,0.0,0.0
1479163715.1,286039418.5,N,0.0,0.0
1479163716.0,286039418.5,N,0.0,0.0
1479163735.8,286039421.2,N,0.0,0.0
1479163755.7,286039424.1,N,0.0,0.0
1479163775.5,286039417.6,N,0.0,0.0
1479163795.3,286039424.6,N,0.0,0.0
1479163815.2,286039420.7,N,0.0,0.0
1479163835.0,286039462.7,N,0.0,0.0
1479163835.9,286039462.7,N,0.0,0.0
1479163855.8,286039463.1,N,0.0,0.0
1479163875.6,286039474.8,N,0.0,0.0
1479163895.4,286039425.8,N,0.0,0.0
1479163915.3,286039424.8,N,0.0,0.0
1479163935.1,286039422.0,N,0.0,0.0
1479163955.8,286039419.2,N,0.0,0.0
1479163975.7,286039417.2,N,0.0,0.0
1479163995.5,286039420.5,N,0.0,0.0
1479164015.4,286039473.5,N,0.0,0.0
1479164035.2,286039474.2,N,0.0,0.0
1479164055.0,286039423.9,N,0.0,0.0
1479164055.9,286039423.9,N,0.0,0.0
1479164075.8,286039420.5,N,0.0,0.0
1479164095.6,286039425.0,N,0.0,0.0
1479164115.4,286039422.3,N,0.0,0.0
1479164135.3,286039421.2,N,0.0,0.0
1479164155.1,286039420.5,N,0.0,0.0
1479164175.8,286039427.3,N,0.0,0.0
1479164195.7,286039412.2,N,0.0,0.0
1479164215.5,286039409.7,N,0.0,0.0
1479164235.4,286039428.6,N,0.0,0.0
1479164255.2,286039424.3,N,0.0,0.0
1479164275.0,286039430.7,N,0.0,0.0
1479164275.9,286039430.7,N,0.0,0.0
1479164295.8,286039429.6,N,0.0,0.0
1479164315.6,286039426.9,N,0.0,0.0
1479164335.5,286039431.0,N,0.0,0.0
1479164355.3,286039442.6,N,0.0,0.0
1479164375.1,286039441.8,N,0.0,0.0
1479164395.9,286039443.7,N,0.0,0.0
